Simultaneous Nadir Overpasses (SNOs) Predictions

Prediction of SNOs between AQUA and NOAA-19 Satellite Orbit:

Table of predicted SNOs for the next 14.0 days since TLE Epoch: 10/3/2014
Index Date (AQUA) Time (AQUA) Lat,Lon (AQUA) SZA (AQUA ) Date (NOAA-19) Time (NOAA-19) Lat,Lon (NOAA-19) SZA (NOAA-19 ) Distance(km) Time Diff (sec)
1 10/05/2014 15:01:38 78.18, -64.81 83.46 10/05/2014 15:01:59 78.19, -64.87 83.47 1.47 21
2 10/07/2014 19:45:55 78.30,-136.44 84.44 10/07/2014 19:45:46 78.30,-136.45 84.44 0.46 9
3 10/10/2014 00:30:13 78.48, 151.56 85.50 10/10/2014 00:29:35 78.50, 151.46 85.52 2.61 38
4 10/10/2014 01:19:28 -78.01, -38.50 95.08 10/10/2014 01:20:18 -78.00, -38.39 95.11 2.74 50
5 10/12/2014 05:14:29 78.61, 79.84 86.48 10/12/2014 05:13:22 78.62, 79.76 86.51 1.82 67
6 10/12/2014 06:03:47 -78.27,-110.78 93.94 10/12/2014 06:04:09 -78.28,-110.84 93.94 1.47 22
7 10/14/2014 10:48:03 -78.43, 177.39 92.94 10/14/2014 10:47:57 -78.44, 177.29 92.92 2.29 6
8 10/16/2014 15:32:17 -78.52, 105.84 92.01 10/16/2014 15:31:43 -78.52, 105.85 92.01 0.36 34




NCC Satellite Simultaneous Nadir Overpasses (SNOs) Prediction Service
